Vốn hóa: $2,681,111,964,705 Khối lượng (24h): $86,011,022,627 Tiền ảo: 37,489 Sàn giao dịch: 941 Thị phần: BTC: 60.0%, ETH: 10.4%
PhemexPhemex
Xếp hạng #119 18:40:00 09/05/2026

Khối lượng giao dịch (24h) tại Phemex

$2,420,727,041 -14.16%
Cặp giao dịch 1,092 cặp Số coin niêm yết 659 Tiền pháp định 6 đồng
Khối lượng 24 giờ $2,420,727,041 -14.16% Khối lượng 7 ngày $14,960,897,877 +22.92% Khối lượng 30 ngày $63,039,740,284 -8.52%
Khối lượng giao ngay (24h) $893,916,206 Khối lượng phái sinh (24h) $1,526,810,835 Điểm thanh khoản -

Các cặp đang giao dịch Giao ngay tại Phemex

#TiềnCặpGiá (USD)Khối lượng (24h)Cập nhật
451 The White Whale The White Whale WHITEWHALE WHITEWHALE/USDT $0.007239 $26,258 18:57:08 09/05/2026
452 Orochi Network Orochi Network ON ON/USDT $0.1845 $25,524 18:57:08 09/05/2026
453 Tradoor Tradoor TRADOOR TRADOOR/USDT $0.7484 $25,419 18:57:08 09/05/2026
454 Codatta Codatta XNY XNY/USDT $0.007945 $25,269 18:57:08 09/05/2026
455 Moonbirds Moonbirds BIRB BIRB/USDT $0.1468 $25,070 18:57:08 09/05/2026
456 ChainGPT ChainGPT CGPT CGPT/USDT $0.03121 $25,017 18:57:08 09/05/2026
457 Limitless Limitless LMTS LMTS/USDT $0.1445 $24,778 18:57:08 09/05/2026
458 Audiera Audiera BEAT BEAT/USDT $0.5079 $24,644 18:57:08 09/05/2026
459 KGeN KGeN KGEN KGEN/USDT $0.1991 $24,508 18:57:08 09/05/2026
460 Recall Recall RECALL RECALL/USDT $0.05369 $24,392 18:57:08 09/05/2026
461 INFINIT INFINIT IN IN/USDT $0.07032 $24,012 18:57:08 09/05/2026
462 BankrCoin BankrCoin BNKR BNKR/USDT $0.0003343 $24,011 18:57:08 09/05/2026
463 Jelly-My-Jelly Jelly-My-Jelly JELLYJELLY JELLYJELLY/USDT $0.05318 $23,319 18:57:08 09/05/2026
464 zkPass zkPass ZKP ZKP/USDT $0.08848 $23,248 18:57:08 09/05/2026
465 DuckChain DuckChain DUCK DUCK/USDT $0.00009708 $23,166 18:57:08 09/05/2026
466 Impossible Cloud Network Impossible Cloud Network ICNT ICNT/USDT $0.3526 $22,525 18:57:08 09/05/2026
467 Rayls Rayls RLS RLS/USDT $0.004627 $22,346 18:57:08 09/05/2026
468 CARV CARV CARV CARV/USDT $0.06249 $22,185 18:57:08 09/05/2026
469 Power Protocol Power Protocol POWER POWER/USDT $0.08748 $22,008 18:57:08 09/05/2026
470 Zeus Network Zeus Network ZEUS ZEUS/USDT $0.006283 $21,981 18:57:08 09/05/2026
471 Blur Blur BLUR BLUR/USDT $0.02632 $21,902 18:57:08 09/05/2026
472 Bedrock Bedrock BR BR/USDT $0.1529 $21,006 18:57:08 09/05/2026
473 ZetaChain ZetaChain ZETA ZETA/USDT $0.06253 $20,740 18:57:08 09/05/2026
474 Merlin Chain Merlin Chain MERL MERL/USDT $0.03689 $20,643 18:57:08 09/05/2026
475 Humidifi Humidifi WET WET/USDT $0.09692 $19,046 18:57:08 09/05/2026
476 NAVI Protocol NAVI Protocol NAVX NAVX/USDT $0.01011 $18,897 18:57:08 09/05/2026
477 Helium Helium HNT HNT/USDT $0.9431 $18,856 18:57:08 09/05/2026
478 Eclipse Eclipse ES ES/USDT $0.1585 $18,692 18:57:08 09/05/2026
479 Jito Staked SOL Jito Staked SOL JITOSOL JITOSOL/USDT $119.02 $18,239 18:57:08 09/05/2026
480 Portugal National Team Fan Token Portugal National Team Fan Token POR POR/USDT $0.6404 $17,709 16:57:10 09/05/2026
481 Tempestas Copper Tempestas Copper TCU29 TCU29/USDT $3.81 $17,265 18:57:08 09/05/2026
482 Wayfinder Wayfinder PROMPT PROMPT/USDT $0.03558 $16,738 18:57:08 09/05/2026
483 STBL STBL STBL STBL/USDT $0.03978 $16,584 18:57:08 09/05/2026
484 Magma Finance Magma Finance MAGMA MAGMA/USDT $0.2248 $16,355 18:57:08 09/05/2026
485 Bitlight Bitlight LIGHT LIGHT/USDT $0.1693 $16,094 18:57:08 09/05/2026
486 TCOM Global TCOM Global TCOM TCOM/USDT $0.009128 $15,942 18:57:08 09/05/2026
487 Subsquid Subsquid SQD SQD/USDT $0.03624 $15,632 18:57:08 09/05/2026
488 Cloud Cloud CLOUD CLOUD/USDT $0.01917 $15,622 18:57:08 09/05/2026
489 Ronin Ronin RON RON/USDT $0.1087 $15,600 18:57:08 09/05/2026
490 Koma Inu Koma Inu KOMA KOMA/USDT $0.008383 $15,289 18:57:08 09/05/2026
491 Intuition Intuition TRUST TRUST/USDT $0.07343 $15,205 18:57:08 09/05/2026
492 tokenbot tokenbot CLANKER CLANKER/USDT $26.86 $15,151 18:57:08 09/05/2026
493 Yooldo Yooldo ESPORTS ESPORTS/USDT $0.3538 $13,985 18:57:08 09/05/2026
494 Doodles Doodles DOOD DOOD/USDT $0.003396 $13,881 18:57:08 09/05/2026
495 Act I : The AI Prophecy Act I : The AI Prophecy ACT ACT/USDT $0.01662 $13,658 18:57:08 09/05/2026
496 Zeta Zeta ZEX ZEX/USDT $0.02799 $13,598 18:57:08 09/05/2026
497 Echelon Prime Echelon Prime PRIME PRIME/USDT $0.3954 $13,105 18:57:08 09/05/2026
498 Vision Vision VSN VSN/USDT $0.04771 $12,766 18:57:08 09/05/2026
499 Phoenix Phoenix PHB PHB/USDT $0.1204 $12,420 18:57:08 09/05/2026
500 Parcl Parcl PRCL PRCL/USDT $0.01353 $12,419 18:57:08 09/05/2026

Kết quả ở bảng trên đang hiển thị trang 10 trên tổng số 12 trang. Hiển thị kết quả từ 451 đến 500.

Giới thiệu về sàn Phemex

Phemex là gì?

Phemex là một sàn giao dịch phái sinh tiền điện tử. Có trụ sở tại Singapore, sàn giao dịch này được các cựu giám đốc điều hành của Morgan Stanley ra mắt vào năm 2019. Dự án đang nhanh chóng trở nên phổ biến do phí thấp và tính thanh khoản cao, cung cấp giao diện biểu đồ và ví thân thiện với người dùng, không cần quy trình định danh khách hàng (KYC), độ chênh lệch khớp lệnh nhanh/chặt chẽ, cũng như giao dịch hợp đồng giao ngay, hợp đồng và ký quỹ.

Sàn giao dịch tiền điện tử tập trung (hay CEX) phục vụ tất cả khách hàng, từ những người mới sử dụng tiền điện tử đến các nhà đầu tư chuyên nghiệp. Phemex cung cấp lời khuyên tài chính để cải thiện trải nghiệm giao dịch, cổng thông tin đào tạo với hướng dẫn và biểu đồ, quy trình đăng ký nhanh chóng, ứng dụng di động tiện lợi, chương trình giới thiệu và cách tạo thu nhập thụ động.

Nền tảng cung cấp giao dịch mua tài sản kỹ thuật số ngay lập tức. Theo trang web của dự án, nền tảng có thể xử lý 300.000 giao dịch mỗi giây, và thời gian phản hồi lệnh chưa đến 1 mili giây.

Những ai đã sáng lập ra Phemex?

Giám đốc điều hành và người sáng lập Phemex là Jack Tao, cựu Kỹ sư phần mềm và Phó chủ tịch của Morgan Stanley. Tao tốt nghiệp Đại học Phúc Đán, Thượng Hải, có kinh nghiệm về tài chính truyền thống và chuyên phát triển các nền tảng giao dịch thuật toán trong hơn 10 năm.

Phemex được ra mắt khi nào?

Dự án được thành lập vào tháng 11/2019 và thuộc sở hữu của Công ty Phemex Financial Pte.

Phemex có địa điểm ở đâu?

Phemex có địa điểm tại Singapore. Đây là công ty ngoại biên và được đăng ký tại Quần đảo Virgin thuộc Anh.

Các quốc gia bị hạn chế sử dụng Phemex

Nền tảng này có hơn 5 triệu người dùng đang hoạt động ở hơn 200 quốc gia. Theo các điều khoản sử dụng, các dịch vụ của họ không có sẵn ở Hoa Kỳ, Vương quốc Anh, Quebec và Alberta (Canada), Cuba, Crimea, Sevastopol, Iran, Syria, Triều Tiên, Hàn Quốc, Sudan, Trung Quốc, Hồng Kông, Cộng hòa Seychelles và Bermuda.

Những đồng coin nào được hỗ trợ trên Phemex?

Phemex hỗ trợ hơn 250 tài sản, hơn 137 cặp giao dịch hợp đồng và hơn 238 cặp giao dịch giao ngay. Dưới đây là một số loại tiền điện tử mà người dùng có thể mua/bán/giao dịch trên sàn: BTC, ETH, USDT, DOGE, XRP, LINK, ADA, ALGO, ATOM, MANA, SHIB, APE, FTM, COMP, ZEC, MATIC, LTC, AAVE, SAND và DOT.

Phí trên Phemex là bao nhiêu?

Phemex là một nền tảng đầy đủ dịch vụ và nổi bật so với các nền tảng khác về cơ cấu phí. Sàn giao dịch tính phí giao ngay là 0,1% (0,1% giá trị giao dịch cho các nhà tạo lập thị trường (maker) và người tiếp nhận thị trường (taker) và có chiết khấu dành cho các nhà giao dịch khối lượng lớn). Phí giao dịch hợp đồng dựa trên mô hình Maker-Taker, trong đó Phemex tính phí 0,06% cho người tiếp nhận thị trường (taker) và 0,01% cho nhà tạo lập thị trường (maker). Nền tảng không tính bất kỳ khoản phí nào đối với tiền nạp tiền điện tử vào tài khoản giao dịch. Để biết thêm chi tiết, hãy tham khảo Cơ cấu phí.

Có thể sử dụng đòn bẩy hoặc giao dịch ký quỹ trên Phemex không?

Người dùng có thể giao dịch với đòn bẩy lên tới 100 lần. Phemex cung cấp giao dịch đòn bẩy cho các hợp đồng vĩnh viễn như ETHUSD, BTCUSD, LTCUSD, LINKUSD, XRPUSD, XTZUSD.

Tổng quan nhanh về sàn Phemex

Sàn Phemex được xếp hạng thứ #119 trên toàn thế giới xét theo khối lượng giao dịch.

Tổng khối lượng giao dịch trong 24 giờ tại sàn Phemex là $2,420,727,041, khối lượng giao dịch giảm so với ngày hôm qua 14.16%.

Hiện tại, sàn đang niêm yết 659 coin với số cặp tiền ảo đang giao dịch là 1,092 cặp.

Sàn Phemex hỗ trợ các loại giao dịch Giao ngay, Vĩnh cửu.

Sàn cũng có hỗ trợ tiền pháp định với hơn 6 loại tiền tệ khác nhau, giúp dễ dàng hơn trong việc giao dịch tiền ảo.

Sàn Phemex - Khối lượng giao dịch, cặp giao dịch - Danh sách cặp giao dịch Trang 10 - CoinMarket.vn
4.4 trên 1006 đánh giá